Volver al catálogo

DELTA 1 DEB

ActivoSSO
NORAD 13563·DEBRIS·🇺🇸 United States

Lanzado Mar 5, 1978 desde Vandenberg Space Force Base

Loading…

Próximos Pases (próximas 24 horas)

TLE

ActualizadoSource: Space-Track

Época: Sep 13, 2026, 00:56 UTC

1 13563U 78026FA  26256.03912692  .00000170  00000-0  95607-4 0  9993
2 13563  98.8559 280.4081 0043746  62.7153 352.2796 14.22314310295488

Sigue DELTA 1 DEB en tiempo real con AllMySat

Download on the App Store